Date String (YYYY-MM-DD hh:mm:ss) UTC,Instrument flags,Ambient pressure (hPa),Sample flow (lpm),Bypass flow (lpm),Sample temperature (°C),Ambient temperature (°C),ASC tube jacket temperature (°C),LED temperature (°C),Box temperature (°C),Sample RH (%),Span deviation,Mass concentration (μg/m³),Mass concentration (μg/m³),Mass concentration (μg/m³)
DateTimeUTC,F1_M11,P_M11,Q1_M11,Q2_M11,T1_M11,T2_M11,T3_M11,T4_M11,T5_M11,U1_M11,ZSPAN_M11,X0_M11,X2_M11,X1_M11
2022-12-07 10:00:00,,0825.9,4.99,0.00,22.1,20.8,00.0,31.1,23.9,10.5,0000.0,0007.54,0003.55,0002.94
2022-12-07 10:01:00,,0826.0,5.01,0.00,22.1,20.8,00.0,31.0,23.9,10.6,0000.0,0007.29,0003.58,0002.90
2022-12-07 10:02:00,,0826.0,5.01,0.00,22.1,20.7,00.0,31.0,23.9,10.7,0000.0,0007.45,0003.60,0002.87
2022-12-07 10:03:00,,0826.0,4.99,0.00,22.1,20.7,00.0,31.0,23.9,10.6,0000.0,0007.58,0003.56,0002.83
2022-12-07 10:04:00,,0826.0,5.00,0.00,22.1,20.7,00.0,31.0,23.9,10.7,0000.0,0007.71,0003.54,0002.80
2022-12-07 10:05:00,,0826.0,5.00,0.00,22.0,20.6,00.0,31.0,23.9,10.8,0000.0,0007.84,0003.56,0002.80
2022-12-07 10:06:00,,0826.0,5.00,0.00,22.0,20.6,00.0,31.0,23.9,10.8,0000.0,0007.69,0003.54,0002.79
2022-12-07 10:07:00,,0825.9,5.00,0.00,22.0,20.6,00.0,31.0,23.8,10.7,0000.0,0007.45,0003.54,0002.78
2022-12-07 10:08:00,,0825.9,4.99,0.00,22.0,20.6,00.0,31.0,23.8,10.7,0000.0,0007.40,0003.54,0002.80
2022-12-07 10:09:00,,0825.9,5.00,0.00,22.0,20.6,00.0,31.0,23.8,10.7,0000.0,0007.76,0003.58,0002.82
2022-12-07 10:10:00,,0826.0,5.00,0.00,22.0,20.6,00.0,31.0,23.8,10.7,0000.0,0007.75,0003.59,0002.85
2022-12-07 10:11:00,,0826.0,4.99,0.00,22.0,20.6,00.0,31.0,23.8,10.7,0000.0,0007.74,0003.61,0002.89
2022-12-07 10:12:00,,0826.0,5.01,0.00,22.0,20.6,00.0,31.0,23.8,10.6,0000.0,0007.81,0003.60,0002.89
2022-12-07 10:13:00,,0826.0,5.00,0.00,22.0,20.5,00.0,31.0,23.8,10.6,0000.0,0007.85,0003.61,0002.89
2022-12-07 10:14:00,,0826.1,5.01,0.00,22.0,20.5,00.0,31.0,23.7,10.6,0000.0,0007.71,0003.62,0002.90
2022-12-07 10:15:00,,0826.0,5.00,0.00,21.9,20.4,00.0,30.9,23.7,10.4,0000.0,0007.53,0003.61,0002.86
2022-12-07 10:16:00,,0826.0,5.01,0.00,22.0,20.9,00.0,30.9,23.8,10.4,0000.0,0007.34,0003.55,0002.82
2022-12-07 10:17:00,,0826.0,5.00,0.00,22.1,21.8,00.0,30.8,24.0,10.4,0000.0,0007.99,0003.52,0002.77
2022-12-07 10:18:00,,0826.2,4.99,0.00,22.1,22.0,00.0,30.9,24.1,10.3,0000.0,0008.19,0003.52,0002.75
2022-12-07 10:19:00,,0826.1,4.99,0.00,22.2,21.7,00.0,30.9,24.1,10.3,0000.0,0008.48,0003.51,0002.73
2022-12-07 10:20:00,,0826.2,5.01,0.00,22.1,21.5,00.0,31.0,24.1,10.4,0000.0,0008.30,0003.46,0002.69
2022-12-07 10:21:00,,0826.2,5.00,0.00,22.1,21.2,00.0,31.0,24.0,10.5,0000.0,0009.24,0003.47,0002.67
2022-12-07 10:22:00,,0826.2,5.00,0.00,22.1,21.0,00.0,31.0,24.0,10.6,0000.0,0009.58,0003.47,0002.66
2022-12-07 10:23:00,,0826.2,5.00,0.00,22.1,20.8,00.0,31.0,24.0,10.6,0000.0,0009.65,0003.45,0002.66
2022-12-07 10:24:00,,0826.2,5.00,0.00,22.1,20.7,00.0,31.0,23.9,10.6,0000.0,0009.95,0003.42,0002.66
2022-12-07 10:25:00,,0826.2,5.00,0.00,22.1,20.6,00.0,31.0,23.9,10.6,0000.0,0010.20,0003.43,0002.67
2022-12-07 10:26:00,,0826.2,5.01,0.00,22.1,20.5,00.0,31.0,23.9,10.6,0000.0,0010.10,0003.41,0002.68
2022-12-07 10:27:00,,0826.2,5.01,0.00,22.0,20.5,00.0,31.0,23.8,10.6,0000.0,0010.13,0003.43,0002.71
2022-12-07 10:28:00,,0826.1,5.00,0.00,22.0,20.4,00.0,31.0,23.8,10.5,0000.0,0009.56,0003.46,0002.75
2022-12-07 10:29:00,,0826.2,5.00,0.00,22.0,20.4,00.0,31.0,23.7,10.5,0000.0,0009.65,0003.46,0002.78
2022-12-07 10:30:00,,0826.1,5.00,0.00,22.0,20.3,00.0,31.0,23.7,10.3,0000.0,0009.49,0003.45,0002.78
2022-12-07 10:31:00,,0826.0,5.01,0.00,21.9,20.2,00.0,31.0,23.7,10.2,0000.0,0009.33,0003.44,0002.79
2022-12-07 10:32:00,,0826.2,5.00,0.00,21.9,20.2,00.0,31.0,23.7,10.1,0000.0,0008.40,0003.40,0002.76
2022-12-07 10:33:00,,0826.1,5.00,0.00,21.9,20.2,00.0,30.9,23.7,10.3,0000.0,0008.01,0003.35,0002.74
2022-12-07 10:34:00,,0826.1,5.00,0.00,21.9,20.2,00.0,30.9,23.6,10.2,0000.0,0007.76,0003.32,0002.71
2022-12-07 10:35:00,,0826.0,5.00,0.00,21.8,20.1,00.0,30.9,23.6,10.0,0000.0,0007.08,0003.29,0002.68
2022-12-07 10:36:00,,0826.1,5.00,0.00,21.8,20.2,00.0,30.9,23.6,10.0,0000.0,0007.10,0003.25,0002.63
2022-12-07 10:37:00,,0826.2,5.01,0.00,21.9,21.0,00.0,30.8,23.8,10.0,0000.0,0007.45,0003.23,0002.61
2022-12-07 10:38:00,,0826.2,4.99,0.00,22.0,21.9,00.0,30.8,24.0,10.0,0000.0,0007.50,0003.21,0002.56
2022-12-07 10:39:00,,0826.1,4.98,0.00,22.0,21.9,00.0,30.8,24.0,10.0,0000.0,0007.55,0003.21,0002.50
2022-12-07 10:40:00,,0826.1,5.01,0.00,22.0,21.5,00.0,30.9,24.0,10.0,0000.0,0007.83,0003.16,0002.44
2022-12-07 10:41:00,,0826.2,5.00,0.00,22.0,21.1,00.0,30.9,23.9,09.8,0000.0,0007.57,0003.13,0002.39
2022-12-07 10:42:00,,0826.1,4.99,0.00,22.0,20.8,00.0,30.9,23.8,09.7,0000.0,0007.73,0003.10,0002.33
2022-12-07 10:43:00,,0826.0,4.99,0.00,22.0,20.7,00.0,30.9,23.8,09.8,0000.0,0008.12,0003.07,0002.30
2022-12-07 10:44:00,,0826.0,5.00,0.00,22.0,20.6,00.0,30.9,23.8,09.8,0000.0,0007.97,0003.01,0002.25
2022-12-07 10:45:00,,0826.1,5.00,0.00,22.0,20.6,00.0,30.9,23.8,09.9,0000.0,0008.01,0002.95,0002.21
2022-12-07 10:46:00,,0826.2,5.01,0.00,22.0,20.6,00.0,30.9,23.8,10.0,0000.0,0008.14,0002.92,0002.19
2022-12-07 10:47:00,,0826.1,5.01,0.00,22.0,20.6,00.0,30.9,23.8,10.0,0000.0,0007.80,0002.91,0002.18
2022-12-07 10:48:00,,0826.2,5.00,0.00,22.0,20.6,00.0,30.9,23.8,10.0,0000.0,0007.83,0002.85,0002.14
2022-12-07 10:49:00,,0826.2,5.00,0.00,22.0,20.6,00.0,30.9,23.8,09.9,0000.0,0007.74,0002.83,0002.12
2022-12-07 10:50:00,,0826.1,5.00,0.00,22.0,20.6,00.0,30.9,23.8,09.9,0000.0,0007.72,0002.76,0002.10
2022-12-07 10:51:00,,0826.2,5.00,0.00,21.9,20.6,00.0,30.9,23.7,09.9,0000.0,0006.99,0002.82,0002.07
2022-12-07 10:52:00,,0826.2,5.00,0.00,21.9,20.5,00.0,30.9,23.7,09.9,0000.0,0006.91,0002.79,0002.06
2022-12-07 10:53:00,,0826.1,5.00,0.00,21.9,20.4,00.0,30.9,23.7,10.0,0000.0,0006.51,0002.78,0002.07
2022-12-07 10:54:00,,0826.1,5.00,0.00,21.9,20.4,00.0,30.9,23.7,09.9,0000.0,0005.69,0002.74,0002.06
2022-12-07 10:55:00,,0826.0,5.01,0.00,21.9,20.3,00.0,30.9,23.7,09.9,0000.0,0005.68,0002.73,0002.05
2022-12-07 10:56:00,,0826.0,5.01,0.00,21.8,20.2,00.0,30.9,23.6,09.8,0000.0,0005.50,0002.71,0002.02
2022-12-07 10:57:00,,0826.0,5.01,0.00,21.8,20.3,00.0,30.8,23.6,09.9,0000.0,0005.41,0002.75,0002.00
2022-12-07 10:58:00,,0826.0,5.00,0.00,21.9,21.2,00.0,30.8,23.8,09.8,0000.0,0005.49,0002.74,0001.98
2022-12-07 10:59:00,,0826.0,4.99,0.00,22.0,22.0,00.0,30.8,24.0,09.8,0000.0,0005.09,0002.77,0001.98
